Regional Weather Roundup
Issued by NWS Kansas City/Pleasant Hill, MO

Home | Current Version | Previous Version | Graphics & Text | Print | Product List | Glossary Off
Versions: 1 2 3 4 5 6 7 8 9 10 11 12 13 14 15 16 17 18 19 20 21 22 23 24 25 26 27 28 29 30 31 32 33 34 35 36 37 38 39 40 41 42 43 44 45 46 47 48 49 50

000
ASUS43 KEAX 220510
RWREAX

WEATHER ROUNDUP FOR EASTERN KANSAS AND NORTHWEST MISSOURI
NATIONAL WEATHER SERVICE KANSAS CITY/PLEASANT HILL MO
1200 AM CDT FRI SEP 22 2017

KSZ040-057-103>105-MOZ028-029-037-043-220600-
...KANSAS CITY METROPOLITAN AREA...

CITY           SKY/WX    TMP DP  RH WIND       PRES   REMARKS
K.C. INTL      CLEAR     80  71  74 S16       29.90R
K.C. DOWNTOWN  CLEAR     84  72  67 S10G18    29.90R
LEES SUMMIT    CLEAR     80  71  74 S13       29.92S
OLATHE - IXD   CLEAR     79  71  76 S14       29.92R
OLATHE - OJC   CLEAR     77  72  84 S10       29.92R
LAWRENCE       CLEAR     80  72  76 SE10      29.89R

$$

MOZ001>008-011>017-020>025-030>033-038>040-044>046-053-054-220600-
...NORTHERN AND CENTRAL MISSOURI...

CITY           SKY/WX    TMP DP  RH WIND       PRES   REMARKS
ST. JOSEPH     CLEAR     81  73  76 S10       29.88R
MOSBY          PTCLDY    79  70  73 SE5       29.91R
WARRENSBURG    CLEAR     73  68  83 SE7       29.94S
WHITEMAN AFB   CLEAR     74  74 100 S9        29.94R
CLINTON        CLEAR     75  68  78 S7        29.96S
SEDALIA        CLEAR     78  70  76 S9        29.97R
WARSAW         NOT AVBL
CHILLICOTHE      N/A     79  70  74 S6        29.94R
KIRKSVILLE     CLEAR     72  69  90 S7        29.96S

$$

MOZ041-047>049-056>058-063>065-088>090-097-220600-
...EASTERN AND SOUTHERN MISSOURI...

CITY           SKY/WX    TMP DP  RH WIND       PRES   REMARKS
ST. LOUIS INTL PTCLDY    81  70  69 SE7       30.02R
SPIRIT OF STL  CLEAR     80  70  71 S5        30.00R
COLUMBIA       CLEAR     76  69  79 SE7       29.98R
JEFFERSON CITY CLEAR     78  67  68 SE6       29.97R
ROLLA          CLEAR     76  68  76 S8        30.02R
OSAGE BEACH    CLEAR     75  68  78 S5        29.99S
SPRINGFIELD    CLEAR     77  68  73 S12       29.99R
BRANSON        CLEAR     75  68  78 CALM      30.02S
JOPLIN         CLEAR     77  71  82 SE9       29.96R
WEST PLAINS    CLEAR     75  69  81 S3        30.04S

$$

IAZ060-094-KSZ022-034>040-054-083-096-NEZ052-066-093-220600-
...KANSAS...SOUTHEAST NEBRASKA AND IOWA...

CITY           SKY/WX    TMP DP  RH WIND       PRES   REMARKS
TOPEKA         CLEAR     81  73  76 S15       29.86R
MANHATTAN      CLEAR     83  71  67 S16G25    29.82R
EMPORIA        CLEAR     79  70  74 S20       29.88R
CHANUTE        CLEAR     79  70  74 S14       29.92R
WICHITA        CLEAR     81  71  71 S17G25    29.86R
OMAHA          PTCLDY    82  72  71 S18       29.80R
LINCOLN        CLEAR     83  71  67 S20G28    29.78R
FALLS CITY     CLEAR     81  72  74 S14       29.83S
LAMONI         CLEAR     79  70  74 S13       29.91R
DES MOINES     CLEAR     80  69  69 S12       29.88R

$$




USA.gov is the U.S. government's official web portal to all federal, state and local government web resources and services.